Regional Weather Roundup
Issued by NWS

Home | Current Version | Previous Version | Graphics & Text | Print | Product List | Glossary Off
Versions: 1 2 3 4 5 6 7 8 9 10 11 12 13 14 15 16 17 18 19 20 21 22 23 24 25 26 27 28 29 30 31 32 33 34 35 36 37 38 39 40 41 42 43 44 45 46 47 48 49 50

000
ASUS43 KMPX 051210
RWRMN
WEATHER ROUNDUP FOR MINNESOTA
NATIONAL WEATHER SERVICE TWIN CITIES/CHANHASSEN MN
700 AM CDT SAT SEP 05 2015


NOTE: "FAIR" INDICATES FEW OR NO CLOUDS BELOW 12,000 FEET WITH NO
SIGNIFICANT WEATHER AND/OR OBSTRUCTIONS TO VISIBILITY. N/A MEANS
CURRENT SKY AND/OR WEATHER CONDITIONS ARE NOT AVAILABLE.

MNZ060>063-068>070-051300-
   Twin Cities Metro

CITY           SKY/WX    TMP DP  RH WIND       PRES   REMARKS
TWIN CITIES    LGT RAIN  76  70  82 S9        29.96R
6HR MIN TEMP:  76; 6HR MAX TEMP:  78; 6HR PCP: TRACE;

ST PAUL        CLOUDY    74  71  91 S9        29.96R
CRYSTAL        CLOUDY    77  70  79 S7        29.95R
BLAINE         CLOUDY    77  72  83 SE7       29.95S
LAKEVILLE      CLOUDY    72  72 100 SE3       29.97R
EDEN PRAIRIE   LGT RAIN  75  71  87 S7        29.95R
6HR MIN TEMP:  75; 6HR MAX TEMP:  78; 6HR PCP: TRACE;

SOUTH ST PAUL  LGT RAIN  74  71  89 S3        29.97R
LAKE ELMO      FAIR      73  70  88 SE7       29.98S
$$
MNZ001>005-007-008-013>017-022>024-027-028-051300-
   Northwest Minnesota

CITY           SKY/WX    TMP DP  RH WIND       PRES   REMARKS
BEMIDJI        CLOUDY    70  70  99 E6        29.90S FOG
HALLOCK        CLOUDY    63  63 100 CALM      29.91S FOG
ROSEAU         HAZE      61  55  82 CALM      29.91S VSB 1/2
WARROAD        FOG       61  57  88 CALM      29.90F VSB 1/4
THIEF RVR FALL CLOUDY    68  68 100 NE6       29.89S
CROOKSTON      PTCLDY    66  64  94 N6        29.88S
FOSSTON        CLEAR     64  64 100 CALM      29.89F FOG
DETROIT LAKES  CLEAR     72  68  88 SE6       29.88F
MOORHEAD       CLEAR     66  66 100 CALM      29.84S FOG
PARK RAPIDS    CLOUDY    72  69  90 E6        29.90S
MAHNOMEN       FAIR      66  65  99 CALM      29.87S FOG
$$
MNZ006-009>011-018-025>026-051300-
   North Central Minnesota

CITY           SKY/WX    TMP DP  RH WIND       PRES   REMARKS
BAUDETTE       MOCLDY    68  66  93 SE5       29.92S
FLAG ISLAND    CLEAR     66  64  94 CALM      29.91S
INTL FALLS     CLOUDY    67  65  93 SE8       29.93S
6HR MIN TEMP:  66; 6HR MAX TEMP:  70; 6HR PCP:  0.35;

WASKISH        CLOUDY    68  66  94 E3        29.91F
BIG FORK       LGT RAIN  70  66  88 SE7       29.95S
LONGVILLE      CLOUDY    70  70 100 CALM      29.92S
GRAND RAPIDS     N/A     70  66  88 SE10      29.94F
CRANE LAKE     CLOUDY    64  64 100 CALM      29.99S
ORR            CLOUDY    66  63  88 CALM      29.95R
COOK           MOCLDY    68  66  94 CALM      29.97R
WALKER         CLOUDY    71  70  96 E3        29.91S
$$
MNZ012-019>021-037-051300-
   Northeast Minnesota

CITY           SKY/WX    TMP DP  RH WIND       PRES   REMARKS
DULUTH         FOG       65  64  97 SE10      29.99F VSB 1/8
6HR MIN TEMP:  65; 6HR MAX TEMP:  68;

ELY            CLOUDY    64  63  94 CALM      29.99S
HIBBING        CLOUDY    68  66  93 SE7       29.97S
EVELETH        PTCLDY    64  64 100 SE6       29.99S
DULUTH HARBOR  CLOUDY    63  59  88 N6        29.99F
TWO HARBORS    HAZE      68  63  83 E3        29.98F VSB<1/4
SILVER BAY     CLOUDY    64  63  94 CALM      29.99F FOG
GRAND MARAIS     N/A     62  60  93 CALM      29.99F
G MARAIS ARPRT CLOUDY    63  61  94 N3        30.04S FOG
$$
MNZ029>031-032-039>041-046>048-054>057-064-051300-
   West Central Minnesota

CITY           SKY/WX    TMP DP  RH WIND       PRES   REMARKS
FERGUS FALLS   CLEAR     73  72  94 SE8       29.83F
WHEATON        PTCLDY    64  64 100 E7        29.85S FOG
MORRIS         CLEAR     72  70  94 SE9       29.85R FOG
ALEXANDRIA     CLEAR     71  70  96 SE9       29.90S
ELBOW LAKE     FAIR      71  69  95 SE8       29.86R
WADENA         CLEAR     70  68  94 SE6       29.89S
GLENWOOD       CLEAR     72  70  94 SE7       29.90S
APPLETON       PTCLDY    72  68  88 SE8       29.84S
BENSON         CLEAR     73  68  83 S10       29.86S
ORTONVILLE     PTCLDY    70  66  88 SE6       29.84R
MADISON        PTCLDY    70  68  94 SE6       29.84S
WILLMAR        FAIR      73  72  94 SE9       29.90S
$$
MNZ033>034-036-042>043-049>051-058-059-051300-
   Central Minnesota

CITY           SKY/WX    TMP DP  RH WIND       PRES   REMARKS
ST CLOUD       MOCLDY    73  71  93 S16       29.91F
6HR MIN TEMP:  72; 6HR MAX TEMP:  75; 6HR PCP:  0.46;

SAUK CENTRE    FAIR      71  69  95 E6        29.90F
PAYNESVILLE    PTCLDY    76  68  77 E10       29.91S
AITKIN         CLOUDY    73  66  78 E6        29.91S
PINE RIVER     MOCLDY    70  70 100 SE3       29.95R
BRAINERD       CLOUDY    72  67  84 SE5       29.91S
STAPLES        PTCLDY    72  68  88 S7        29.90S
LONG PRAIRIE   FAIR      70  68  94 SE6       29.90F
LITTLE FALLS   PTCLDY    70  68  94 SE6       29.90F
LITCHFIELD     CLOUDY    75  72  88 SE10G18   29.91S
BUFFALO        TSTM      70  66  88 CALM      29.96R
MAPLE LAKE     CLOUDY    72  69  92 SE5       29.93F THUNDER
$$
MNZ037-044-045-052-053-051300-
   East Central Minnesota

CITY           SKY/WX    TMP DP  RH WIND       PRES   REMARKS
PRINCETON      RAIN      73  72  94 E8        29.93S
MORA           CLOUDY    70  68  94 SE5       29.96F
CAMBRIDGE      LGT RAIN  75  64  69 SE5       29.94R
RUSH CITY      MOCLDY    72  69  91 SE3       29.96S
MOOSE LAKE     DRIZZLE   63  61  94 NE8       29.96F
HINCKLEY       PTSUNNY   72  70  94 SE9       29.94F
CLOQUET        MOCLDY    63  61  94 E6        29.98F
MCGREGOR       CLOUDY    70  68  94 SE9       29.94F
$$
MNZ071>073-080-081-089-090-097-098-051300-
   Southwest Minnesota

CITY           SKY/WX    TMP DP  RH WIND       PRES   REMARKS
MONTEVIDEO     PTCLDY    70  70 100 S6        29.87F
GRANITE FALLS  PTCLDY    72  69  91 SE7       29.88S
CANBY          CLEAR     73  67  81 SE5       29.85S
MARSHALL       CLEAR     72  64  78 S9        29.86S
REDWOOD FALLS  PTCLDY    73  70  90 E7        29.88S
OLIVIA         PTCLDY    72  68  88 S8        29.89S
PIPESTONE      CLEAR     70  66  88 S10       29.89S
WINDOM         CLEAR     75  68  78 S9G16     29.90S
WORTHINGTON    CLEAR     72  66  83 S14       29.90S
JACKSON        CLOUDY    73  70  88 S10       29.92S
TRACY          CLEAR     73  69  88 S14       29.87S
SLAYTON        FAIR      70  69  96 S6        29.90S
$$
MNZ065>067-074>077-082>085-091>093-051300-
   South Central Minnesota

CITY           SKY/WX    TMP DP  RH WIND       PRES   REMARKS
MANKATO        CLOUDY    73  70  88 SE10      29.96S THUNDER
NEW ULM        MOCLDY    73  70  88 SE9       29.91F
ST JAMES       MOCLDY    73  72  94 SE6       29.92S
FAIRMONT       MOCLDY    73  64  73 S10       29.92S
GLENCOE        TSTM      73  72  95 SE10G17   29.93F
FARIBAULT      CLOUDY    73  70  88 SE5       29.99R
OWATONNA       CLOUDY    73  70  88 S6        30.00R THUNDER
WASECA         CLOUDY    72  70  94 E6        30.00R THUNDER
ALBERT LEA     MOCLDY    73  70  88 SE6       29.99R
$$
MNZ078>079-086>088-094>096-051300-
   Southeast Minnesota

CITY           SKY/WX    TMP DP  RH WIND       PRES   REMARKS
ROCHESTER      PTCLDY    71  69  93 S8        30.02S
6HR MIN TEMP:  70; 6HR MAX TEMP:  74;

RED WING       PTCLDY    75  72  88 E3        29.98R
STANTON        CLOUDY    75  69  80 S3        29.98R
DODGE CENTER   MOCLDY    70  68  94 S5        30.01S FOG
WINONA         CLOUDY    73  70  88 CALM      30.01R
AUSTIN         MOCLDY    73  70  88 S5        30.01R
PRESTON        PTCLDY    70  67  89 S3        30.04R
$$
ABBREVIATIONS USED IN REMARKS
   TC - TEMPERATURES IN CELSIUS
  WCI - WIND CHILL INDEX
   HX - HEAT INDEX
  VSB - VISIBILITY
$$


USA.gov is the U.S. government's official web portal to all federal, state and local government web resources and services.